[[{"header":{"parameterUnit":"m.s-1","parameterCategory":2,"la1":30.2991,"la2":30.254,"lo1":-89.0895,"lo2":-89.0444,"dy":0.0017,"dx":0.0017,"nx":28,"ny":28,"refTime":"2024-09-03T09:00:00:Z","depth":"0","parameterNumber":2,"parameterNumberName":"U-component_of_CURRENTS"},"data":[0,0,0,0,0,0,0,0,0,0,0,0,0,0,0,0,0,0,0,0,0,0,0,0,0,0,0,0,0,0,0,0,0,0,0,0,0,0,0,0,0,0,0,0,0,0,0,0,0,0,0,0,0,0,0,0,0,0,0.1292,0.1292,0,0.1253,0.1252,0.1251,0.1234,0.1235,0.1235,0.1235,0.1139,0.1136,0.1133,0,0,0,0,0,0,0,0,0,0,0,0,0,0.1289,0.1289,0.1292,0.1292,0.1292,0.1253,0.1252,0.1251,0.1234,0.1235,0.1235,0.1236,0.114,0.1136,0.1133,0,0,0,0,0,0,0,0,0,0,0,0,0,0.1271,0.129,0.1292,0.1281,0.128,0.1253,0.1252,0.1251,0.1234,0.1235,0.1235,0.1236,0.1141,0.1137,0.1132,0.1091,0,0,0.1119,0.1117,0,0,0,0,0,0,0,0,0.1272,0.127,0.1283,0.1282,0.1281,0.1253,0.1216,0.1196,0.1234,0.1247,0.1235,0.1236,0.1174,0.1167,0.1153,0.1087,0.1083,0.1118,0.1115,0.1114,0.1112,0,0,0,0,0,0,0,0.1273,0.1271,0.1272,0.1283,0.1282,0.1258,0.1256,0.1212,0.1203,0.1246,0.1246,0.1248,0.1172,0.1157,0.115,0.1081,0.1118,0.1114,0.1112,0.111,0.1046,0.1047,0,0,0,0,0,0,0.1289,0.1273,0.1273,0.1271,0.1283,0.1258,0.1256,0.1258,0.1205,0.1199,0.1247,0.1247,0.1164,0.1155,0.1147,0.1155,0.1114,0.1109,0.1107,0.1045,0.1047,0.1048,0,0,0,0,0,0,0.1289,0.1289,0.1275,0.1275,0.1272,0.1258,0.126,0.1257,0.1249,0.1207,0.12,0.1246,0.1165,0.1153,0.1116,0.1149,0.1107,0.1103,0.1044,0.1046,0.1047,0.1133,0,0,0,0,0,0,0.1289,0.1289,0.1293,0.1276,0.1273,0.1267,0.126,0.1256,0.1252,0.1251,0.1202,0.1194,0.1164,0.1123,0.1112,0.1142,0.11,0.1043,0.1045,0.1047,0.1129,0.1137,0.1144,0,0,0,0,0,0.1289,0.1292,0.1293,0.1294,0.1279,0.1268,0.1263,0.1253,0.1251,0.1248,0.1217,0.1196,0.1128,0.1119,0.1106,0.1136,0.1042,0.1044,0.1046,0.1125,0.1136,0.1144,0,0,0,0,0,0,0.1291,0.129,0.1292,0.1294,0.1288,0.1267,0.1263,0.1256,0.1229,0.1227,0.1188,0.1177,0.1168,0.1131,0.1122,0.1125,0.1089,0.1089,0.1154,0.1163,0.1171,0.1197,0.1096,0,0,0,0,0,0.1295,0.1297,0.1293,0.1294,0.1294,0.1279,0.1273,0.1267,0.1244,0.1234,0.1201,0.1173,0.1165,0.1146,0.1123,0.1101,0.1139,0.1118,0.1126,0.1133,0.1146,0.1244,0.1263,0.1055,0.1055,0.1055,0,0,0.1295,0.1296,0.1296,0.1295,0.1286,0.1284,0.1276,0.127,0.127,0.1225,0.1204,0.1194,0.1166,0.1161,0.1155,0.1132,0.1215,0.1136,0.1142,0.1151,0.1249,0.1269,0.1288,0.1056,0.1056,0.1056,0,0,0.1292,0.1299,0.1298,0.1296,0.1293,0.1288,0.1291,0.1274,0.1271,0.1247,0.1241,0.1253,0.1193,0.121,0.1206,0.1237,0.1258,0.1227,0.1277,0.1373,0.1392,0.1409,0.1503,0.1528,0.1224,0.1225,0.1225,0,0.1293,0.1295,0.1295,0.1294,0.1299,0.1294,0.1298,0.129,0.1262,0.1274,0.1248,0.1256,0.1227,0.1276,0.1288,0.1259,0.1314,0.1245,0.1388,0.1405,0.1421,0.1513,0.1539,0.1229,0.1229,0.1228,0.1228,0,0.1287,0.1292,0.1292,0.1295,0.13,0.1301,0.1303,0.1305,0.13,0.1303,0.1341,0.1326,0.1341,0.1343,0.1314,0.1419,0.1424,0.1396,0.1372,0.1448,0.1539,0.1565,0.1235,0.1234,0.1232,0.1231,0,0,0.1281,0.1288,0.1288,0.1294,0.1306,0.1305,0.1323,0.1346,0.1378,0.1369,0.1428,0.143,0.145,0.1449,0.145,0.1521,0.1678,0.1503,0.1506,0.1611,0.1906,0.1857,0.188,0.1683,0.1687,0.1691,0.1932,0,0.1279,0.1281,0.1291,0.1299,0.1304,0.1323,0.1343,0.1367,0.1392,0.1441,0.1481,0.1524,0.1484,0.1515,0.1584,0.1645,0.1746,0.1615,0.1803,0.1809,0.1768,0.1908,0.184,0.2045,0.1957,0.1961,0.1964,0,0.127,0.1278,0.1288,0.1313,0.132,0.1326,0.1386,0.1403,0.1482,0.1512,0.1587,0.1617,0.1719,0.1679,0.186,0.178,0.1859,0.1912,0.1922,0.1863,0.1807,0.1949,0.2095,0.2002,0.2004,0.2001,0.1998,0,0.1263,0.1275,0.1286,0.1292,0.1321,0.1338,0.1358,0.1425,0.1463,0.1579,0.1633,0.175,0.1816,0.1934,0.2009,0.196,0.2219,0.2165,0.2215,0.2212,0.2183,0.2169,0.2272,0.2345,0.2345,0.2344,0.2343,0,0.126,0.1266,0.1279,0.1284,0.1306,0.1333,0.1382,0.1425,0.1518,0.1586,0.1671,0.1758,0.1885,0.2018,0.209,0.2232,0.2295,0.2271,0.2288,0.2209,0.2195,0.2129,0.2069,0.2353,0.2351,0.2349,0.2348,0,0.1246,0.1258,0.1264,0.1291,0.13,0.1313,0.1369,0.1415,0.1503,0.1607,0.1653,0.1804,0.1969,0.2098,0.2304,0.2331,0.2407,0.2514,0.2407,0.2405,0.231,0.2256,0.2311,0.2243,0.2621,0.2621,0.2622,0,0.1237,0.124,0.1256,0.1264,0.1272,0.1299,0.1329,0.1402,0.1458,0.1623,0.1678,0.1868,0.1979,0.2256,0.2382,0.256,0.2454,0.2584,0.2467,0.2338,0.2292,0.2165,0.2093,0.2486,0.2485,0.2485,0.2484,0,0.1222,0.1225,0.1232,0.1245,0.1262,0.1284,0.1327,0.1361,0.1467,0.1557,0.1686,0.179,0.2056,0.22,0.2424,0.2512,0.2424,0.2573,0.2493,0.225,0.2073,0.2002,0.2286,0.2479,0.2479,0.248,0.248,0.248,0.1203,0.12,0.1207,0.1216,0.1236,0.125,0.1254,0.1315,0.1381,0.1498,0.1637,0.1779,0.2018,0.2307,0.2374,0.2434,0.2398,0.239,0.2362,0.2264,0.2107,0.2364,0.2518,0.2519,0.2519,0.252,0.252,0,0.1169,0.1171,0.1181,0.1181,0.1184,0.1209,0.1242,0.1247,0.1288,0.1438,0.1548,0.1798,0.1954,0.2127,0.2294,0.2246,0.2141,0.2181,0.2,0.1959,0.2266,0.2162,0.2179,0.2179,0.2179,0.2179,0.2179,0.2179,0.1152,0.1141,0.1145,0.1125,0.1129,0.1113,0.1114,0.1133,0.1211,0.1347,0.1492,0.165,0.1885,0.2045,0.2062,0.2035,0.1867,0.1801,0.1763,0.1974,0.199,0.2005,0.1892,0.1853,0.1853,0.1384,0.1381,0.1378]},{"header":{"parameterUnit":"m.s-1","parameterCategory":2,"la1":30.2991,"la2":30.254,"lo1":-89.0895,"lo2":-89.0444,"dy":0.0017,"dx":0.0017,"nx":28,"ny":28,"refTime":"2024-09-03T09:00:00:Z","depth":"0","parameterNumber":3,"parameterNumberName":"V-component_of_CURRENTS"},"data":[0,0,0,0,0,0,0,0,0,0,0,0,0,0,0,0,0,0,0,0,0,0,0,0,0,0,0,0,0,0,0,0,0,0,0,0,0,0,0,0,0,0,0,0,0,0,0,0,0,0,0,0,0,0,0,0,0,0,-0.0043,-0.0044,0,-0.0105,-0.0106,-0.0107,-0.0135,-0.0135,-0.0135,-0.0135,-0.0129,-0.0128,-0.0128,0,0,0,0,0,0,0,0,0,0,0,0,0,0.0033,0.0032,-0.0043,-0.0044,-0.0045,-0.0105,-0.0106,-0.0107,-0.0135,-0.0135,-0.0135,-0.0135,-0.0129,-0.0128,-0.0128,0,0,0,0,0,0,0,0,0,0,0,0,0,-0.0011,0.0031,-0.0043,-0.0067,-0.0069,-0.0105,-0.0106,-0.0107,-0.0135,-0.0135,-0.0135,-0.0135,-0.0129,-0.0128,-0.0128,-0.0126,0,0,-0.0127,-0.0127,0,0,0,0,0,0,0,0,-0.0009,-0.0014,-0.0062,-0.0065,-0.0068,-0.0113,-0.0077,-0.011,-0.0135,-0.011,-0.0135,-0.0135,-0.0117,-0.0118,-0.013,-0.0126,-0.0126,-0.0127,-0.0127,-0.0127,-0.0127,0,0,0,0,0,0,0,-0.0006,-0.0012,-0.0067,-0.0063,-0.0067,-0.0081,-0.0087,-0.0084,-0.0111,-0.0112,-0.0114,-0.0122,-0.0118,-0.013,-0.013,-0.0126,-0.0127,-0.0127,-0.0127,-0.0127,-0.004,-0.0038,0,0,0,0,0,0,0.0002,-0.0009,-0.0065,-0.0069,-0.0039,-0.0082,-0.0089,-0.0098,-0.0113,-0.0116,-0.0122,-0.0123,-0.0131,-0.013,-0.0129,-0.0083,-0.0127,-0.0127,-0.0127,-0.0042,-0.0039,-0.0037,0,0,0,0,0,0,0.0003,-0.0003,-0.0063,-0.004,-0.0049,-0.0083,-0.0094,-0.0099,-0.0112,-0.0121,-0.0123,-0.0129,-0.0131,-0.013,-0.0128,-0.0085,-0.0127,-0.0126,-0.0044,-0.0041,-0.0038,-0.0019,0,0,0,0,0,0,0.0006,-0.0002,-0.0005,-0.004,-0.005,-0.0079,-0.0094,-0.0101,-0.0117,-0.0119,-0.0127,-0.0127,-0.0131,-0.0128,-0.0127,-0.0085,-0.0126,-0.0047,-0.0043,-0.0039,-0.0022,-0.0015,-0.0009,0,0,0,0,0,0.0009,0.0007,-0.0005,-0.0012,-0.0054,-0.0079,-0.0085,-0.0109,-0.0117,-0.0121,-0.0128,-0.0127,-0.01,-0.0128,-0.0127,-0.0083,-0.0049,-0.0044,-0.0039,-0.0025,-0.0016,-0.0009,0,0,0,0,0,0,0.0039,0.0002,-0.0011,-0.0024,-0.0048,-0.0084,-0.009,-0.0108,-0.0119,-0.0116,-0.0126,-0.0126,-0.0102,-0.0094,-0.0124,-0.004,-0.0063,-0.0057,-0.0051,-0.0044,-0.0037,-0.0023,-0.0126,0,0,0,0,0,0.0044,0.0032,-0.0004,-0.0013,-0.0024,-0.0057,-0.007,-0.0086,-0.0103,-0.0109,-0.0116,-0.0102,-0.0081,-0.0067,-0.0058,-0.0027,-0.0012,0.0014,0.0021,0.0026,0.0042,0.0079,0.0089,-0.0021,-0.0021,-0.0021,0,0,0.0053,0.0032,0.0025,-0.0007,-0.0028,-0.0034,-0.0064,-0.008,-0.0073,-0.0103,-0.0093,-0.0094,-0.0071,-0.0037,-0.002,-0.0025,0.0069,0.0032,0.0036,0.0049,0.0085,0.0096,0.0105,-0.0018,-0.0018,-0.0019,0,0,0.007,0.0047,0.0045,0.0028,-0.0,-0.0018,-0.002,-0.0054,-0.0054,-0.0056,-0.0057,-0.0037,-0.0024,0.001,0.003,0.0083,0.009,0.0099,0.0151,0.0186,0.0195,0.0203,0.024,0.0251,0.0115,0.0115,0.0115,0,0.0084,0.0077,0.0042,0.0039,0.0036,-0.0006,0.0002,-0.0006,-0.0032,-0.0011,-0.0044,0.0006,0.0008,0.0086,0.0101,0.0098,0.0114,0.0111,0.0192,0.02,0.0208,0.0244,0.0256,0.0117,0.0116,0.0116,0.0116,0,0.0099,0.0097,0.0096,0.0083,0.0075,0.0073,0.0057,0.0061,0.005,0.0048,0.0095,0.0087,0.0131,0.014,0.0127,0.0209,0.0201,0.018,0.0164,0.022,0.0255,0.0267,0.0119,0.0118,0.0118,0.0117,0,0,0.0126,0.0112,0.0113,0.0128,0.0102,0.0104,0.0125,0.0147,0.0189,0.0164,0.023,0.0242,0.0238,0.0262,0.0263,0.0288,0.0341,0.0258,0.0259,0.028,0.0423,0.036,0.0366,0.0324,0.0327,0.0328,0.0426,0,0.0154,0.0174,0.0154,0.0186,0.02,0.0185,0.0214,0.0231,0.0244,0.0294,0.0306,0.0355,0.029,0.0322,0.0332,0.0347,0.0374,0.0317,0.038,0.0382,0.0306,0.0378,0.0326,0.0403,0.0438,0.044,0.0441,0,0.0176,0.0194,0.0228,0.0263,0.0269,0.0279,0.0342,0.0362,0.0419,0.0438,0.0477,0.0481,0.0536,0.046,0.0504,0.0468,0.0452,0.0442,0.0446,0.039,0.0341,0.0355,0.0423,0.0271,0.0459,0.0458,0.0457,0,0.0227,0.0249,0.0287,0.0292,0.0317,0.0346,0.0363,0.041,0.0465,0.0541,0.0598,0.0631,0.0684,0.0655,0.0616,0.0572,0.0651,0.0596,0.0528,0.0524,0.0496,0.0484,0.0413,0.0629,0.0629,0.0629,0.0629,0,0.0266,0.0301,0.0315,0.0338,0.0402,0.0398,0.048,0.0508,0.0585,0.0682,0.0678,0.0771,0.0731,0.076,0.0687,0.0652,0.0713,0.056,0.0552,0.0501,0.049,0.0367,0.0305,0.0633,0.0632,0.0631,0.063,0,0.0311,0.0315,0.037,0.041,0.0423,0.047,0.0539,0.0612,0.0668,0.0801,0.0838,0.0913,0.0946,0.0888,0.088,0.0769,0.0649,0.0695,0.0635,0.0616,0.0366,0.0308,0.03,0.0249,0.0641,0.064,0.064,0,0.0336,0.0366,0.0421,0.046,0.0475,0.0539,0.0593,0.0649,0.0735,0.0892,0.0975,0.1054,0.1117,0.1066,0.0898,0.0782,0.0663,0.064,0.0533,0.0363,0.0294,0.0265,0.0221,0.0518,0.0516,0.0515,0.0514,0,0.0399,0.0414,0.046,0.053,0.0586,0.066,0.074,0.0817,0.0916,0.1035,0.1194,0.1258,0.1201,0.1075,0.0888,0.0771,0.0518,0.0605,0.0459,0.0221,0.0162,0.0104,0.0442,0.0502,0.0503,0.0504,0.0504,0.0505,0.045,0.0493,0.0547,0.0614,0.0679,0.0771,0.0849,0.0953,0.1095,0.1265,0.1327,0.1419,0.1203,0.0937,0.0766,0.0374,0.0434,0.024,0.0199,0.0198,0.0092,0.0391,0.0407,0.0407,0.0408,0.0408,0.0409,0,0.051,0.0556,0.0628,0.0712,0.0789,0.0812,0.0946,0.1033,0.1197,0.1334,0.1457,0.1371,0.1077,0.0766,0.0272,0.0012,-0.0065,-0.0121,-0.0181,-0.0195,0.0096,0.0025,-0.008,-0.008,-0.008,-0.008,-0.0079,-0.0079,0.055,0.0624,0.0656,0.0786,0.0848,0.0963,0.1041,0.1164,0.1271,0.1405,0.1439,0.1464,0.1187,0.0371,-0.0227,-0.0361,-0.0503,-0.0529,-0.0571,-0.0417,-0.0388,-0.0359,-0.0444,-0.0646,-0.0646,-0.0859,-0.0862,-0.0864]}],[{"header":{"parameterUnit":"m.s-1","parameterCategory":2,"la1":30.2991,"la2":30.254,"lo1":-89.0895,"lo2":-89.0444,"dy":0.0017,"dx":0.0017,"nx":28,"ny":28,"refTime":"2024-09-03T09:00:00:Z","depth":"2","parameterNumber":2,"parameterNumberName":"U-component_of_CURRENTS"},"data":[0,0,0,0,0,0,0,0,0,0,0,0,0,0,0,0,0,0,0,0,0,0,0,0,0,0,0,0,0,0,0,0,0,0,0,0,0,0,0,0,0,0,0,0,0,0,0,0,0,0,0,0,0,0,0,0,0,0,0.1347,0.1347,0,0.1305,0.1304,0.1303,0.1287,0.1287,0.1288,0.1288,0.1223,0.1221,0.1218,0,0,0,0,0,0,0,0,0,0,0,0,0,0.1341,0.1341,0.1347,0.1347,0.1347,0.1305,0.1304,0.1303,0.1287,0.1287,0.1288,0.1289,0.1223,0.1221,0.1218,0,0,0,0,0,0,0,0,0,0,0,0,0,0.1321,0.1342,0.1347,0.1337,0.1336,0.1306,0.1304,0.1303,0.1286,0.1287,0.1288,0.1289,0.1224,0.1221,0.1218,0.118,0,0,0.1207,0.1206,0,0,0,0,0,0,0,0,0.1323,0.1321,0.1339,0.1338,0.1337,0.1306,0.1279,0.1262,0.1286,0.13,0.1288,0.1289,0.1251,0.1246,0.1229,0.1177,0.1174,0.1207,0.1205,0.1204,0.1203,0,0,0,0,0,0,0,0.1324,0.1322,0.1325,0.1339,0.1337,0.1311,0.1309,0.1275,0.1267,0.1299,0.1299,0.1302,0.125,0.1232,0.1227,0.1173,0.1207,0.1204,0.1202,0.1201,0.1181,0.1182,0,0,0,0,0,0,0.1342,0.1324,0.1327,0.1325,0.1337,0.1311,0.1309,0.1311,0.1268,0.1264,0.1301,0.1301,0.1238,0.1231,0.1225,0.1253,0.1204,0.12,0.1198,0.1179,0.1181,0.1183,0,0,0,0,0,0,0.1342,0.1343,0.1328,0.1327,0.1324,0.1311,0.1313,0.131,0.1304,0.1271,0.1265,0.1301,0.1238,0.123,0.121,0.1247,0.1199,0.1196,0.1178,0.118,0.1182,0.1259,0,0,0,0,0,0,0.1342,0.1343,0.1348,0.1329,0.1325,0.1324,0.1313,0.1309,0.1306,0.1306,0.1268,0.1263,0.1238,0.1215,0.1206,0.1242,0.1193,0.1176,0.1179,0.1181,0.1255,0.1264,0.1272,0,0,0,0,0,0.1342,0.1346,0.1348,0.1348,0.1333,0.1324,0.132,0.1309,0.1306,0.1305,0.1283,0.1264,0.1228,0.1212,0.1202,0.1238,0.1174,0.1178,0.1181,0.1251,0.1262,0.1272,0,0,0,0,0,0,0.1343,0.1345,0.1346,0.1351,0.1346,0.1324,0.132,0.1314,0.1293,0.1293,0.1261,0.1254,0.126,0.1232,0.1215,0.1244,0.1207,0.1208,0.1264,0.1274,0.1282,0.1304,0.119,0,0,0,0,0,0.1348,0.1352,0.135,0.1353,0.1353,0.1338,0.1332,0.1327,0.131,0.1301,0.1277,0.1261,0.1263,0.1254,0.124,0.1233,0.1255,0.1258,0.1266,0.1274,0.1287,0.1385,0.1404,0.1194,0.1194,0.1194,0,0,0.1347,0.135,0.1351,0.1353,0.1345,0.1345,0.1335,0.1332,0.1336,0.1296,0.1287,0.1283,0.1268,0.1277,0.1279,0.1258,0.1338,0.1278,0.1284,0.1293,0.1391,0.1412,0.143,0.1196,0.1196,0.1196,0,0,0.1344,0.1353,0.1354,0.1355,0.1356,0.1352,0.1357,0.1342,0.1344,0.1329,0.1328,0.1351,0.1308,0.1335,0.1337,0.1381,0.1383,0.1376,0.143,0.1526,0.1545,0.1562,0.1589,0.1608,0.1378,0.1378,0.1378,0,0.1344,0.1349,0.1352,0.1354,0.1362,0.136,0.1366,0.1363,0.1345,0.1366,0.1336,0.1364,0.1345,0.141,0.1426,0.1404,0.1434,0.1391,0.154,0.1557,0.1573,0.1597,0.1617,0.1382,0.1382,0.1382,0.1381,0,0.134,0.1348,0.1349,0.1357,0.1366,0.137,0.138,0.1392,0.1391,0.14,0.1452,0.1443,0.1471,0.1479,0.1454,0.1569,0.1544,0.1544,0.1518,0.16,0.1618,0.1638,0.1388,0.1387,0.1386,0.1385,0,0,0.1331,0.1344,0.1346,0.1356,0.1373,0.1378,0.1408,0.1446,0.1485,0.1486,0.1551,0.1568,0.1588,0.1595,0.16,0.1673,0.1792,0.1654,0.1657,0.1686,0.1968,0.1828,0.1835,0.183,0.1835,0.1838,0.1925,0,0.1329,0.1337,0.135,0.1368,0.1377,0.1406,0.1435,0.1474,0.1507,0.1565,0.1614,0.1662,0.1627,0.1657,0.173,0.1789,0.1851,0.1765,0.1879,0.1881,0.1754,0.1856,0.1712,0.1769,0.1944,0.1947,0.195,0,0.1323,0.1334,0.1351,0.1389,0.1398,0.1411,0.149,0.1516,0.161,0.1644,0.1725,0.1756,0.1865,0.1821,0.1973,0.1923,0.1949,0.1982,0.1987,0.1847,0.1779,0.1721,0.1797,0.1981,0.1979,0.1977,0.1974,0,0.1318,0.1338,0.1357,0.1365,0.1405,0.1433,0.1461,0.1543,0.1593,0.1713,0.1774,0.1889,0.1953,0.2043,0.2069,0.2052,0.2217,0.2205,0.2099,0.2087,0.198,0.195,0.2322,0.2322,0.2322,0.2322,0.2321,0,0.1317,0.1331,0.1352,0.1362,0.1395,0.1429,0.149,0.1544,0.1648,0.1723,0.1816,0.1902,0.202,0.2103,0.213,0.2157,0.2268,0.213,0.2124,0.1994,0.1966,0.2161,0.2141,0.2325,0.2324,0.2323,0.2323,0,0.131,0.1322,0.1342,0.1379,0.1391,0.1415,0.1486,0.1542,0.1641,0.1753,0.18,0.1952,0.2052,0.2115,0.2247,0.2214,0.2266,0.2235,0.2027,0.1994,0.2056,0.204,0.2171,0.2167,0.2164,0.2162,0.2159,0,0.1306,0.1318,0.1344,0.1358,0.1372,0.141,0.1445,0.1528,0.1591,0.177,0.1827,0.196,0.2026,0.2135,0.2117,0.2131,0.219,0.1985,0.1929,0.2072,0.2053,0.2041,0.2029,0.1814,0.1809,0.1805,0.1802,0,0.1307,0.1316,0.133,0.1354,0.1378,0.141,0.1461,0.1505,0.1616,0.1714,0.1853,0.1927,0.1991,0.1944,0.1911,0.1905,0.1974,0.19,0.2179,0.1844,0.1735,0.1715,0.1716,0.1767,0.177,0.1773,0.1775,0.1776,0.1303,0.1307,0.1326,0.1348,0.1375,0.1403,0.1426,0.149,0.157,0.1658,0.1755,0.1781,0.1794,0.167,0.1639,0.1614,0.1737,0.1686,0.17,0.1718,0.1631,0.1519,0.1492,0.1494,0.1495,0.1497,0.1498,0,0.1291,0.1301,0.1324,0.1341,0.1365,0.1383,0.1436,0.1445,0.1507,0.1532,0.1584,0.1425,0.1379,0.1403,0.1309,0.1301,0.1321,0.1264,0.1292,0.1327,0.1358,0.1254,0.1015,0.1014,0.1012,0.1011,0,0,0.1284,0.1289,0.1297,0.1319,0.1339,0.1357,0.1375,0.1385,0.1392,0.1311,0.1258,0.1275,0.1342,0.1134,0.1124,0.1064,0.1192,0.103,0.1418,0.1486,0.1515,0.1601,0.1479,0,0,0,0,0]},{"header":{"parameterUnit":"m.s-1","parameterCategory":2,"la1":30.2991,"la2":30.254,"lo1":-89.0895,"lo2":-89.0444,"dy":0.0017,"dx":0.0017,"nx":28,"ny":28,"refTime":"2024-09-03T09:00:00:Z","depth":"2","parameterNumber":3,"parameterNumberName":"V-component_of_CURRENTS"},"data":[0,0,0,0,0,0,0,0,0,0,0,0,0,0,0,0,0,0,0,0,0,0,0,0,0,0,0,0,0,0,0,0,0,0,0,0,0,0,0,0,0,0,0,0,0,0,0,0,0,0,0,0,0,0,0,0,0,0,-0.0104,-0.0105,0,-0.0165,-0.0166,-0.0166,-0.0192,-0.0192,-0.0192,-0.0192,-0.0224,-0.0225,-0.0226,0,0,0,0,0,0,0,0,0,0,0,0,0,-0.0038,-0.0039,-0.0104,-0.0105,-0.0106,-0.0165,-0.0166,-0.0166,-0.0192,-0.0192,-0.0192,-0.0192,-0.0224,-0.0225,-0.0226,0,0,0,0,0,0,0,0,0,0,0,0,0,-0.0079,-0.0039,-0.0104,-0.0126,-0.0129,-0.0165,-0.0166,-0.0167,-0.0192,-0.0192,-0.0192,-0.0192,-0.0224,-0.0225,-0.0226,-0.0237,0,0,-0.0231,-0.0231,0,0,0,0,0,0,0,0,-0.0077,-0.0081,-0.0122,-0.0125,-0.0128,-0.0171,-0.0154,-0.0189,-0.0192,-0.0168,-0.0192,-0.0192,-0.0204,-0.0207,-0.0219,-0.0238,-0.024,-0.0231,-0.0232,-0.0232,-0.0233,0,0,0,0,0,0,0,-0.0074,-0.0079,-0.0128,-0.0123,-0.0126,-0.0142,-0.0148,-0.0161,-0.0185,-0.017,-0.0172,-0.0179,-0.0206,-0.0217,-0.022,-0.024,-0.0231,-0.0232,-0.0233,-0.0233,-0.02,-0.0199,0,0,0,0,0,0,-0.0066,-0.0076,-0.0126,-0.013,-0.0102,-0.0144,-0.015,-0.0157,-0.0185,-0.019,-0.0179,-0.018,-0.0215,-0.0218,-0.0221,-0.0195,-0.0232,-0.0234,-0.0234,-0.0202,-0.02,-0.0198,0,0,0,0,0,0,-0.0064,-0.007,-0.0123,-0.0105,-0.0113,-0.0145,-0.0153,-0.0158,-0.0171,-0.0193,-0.0197,-0.0186,-0.0215,-0.0219,-0.0236,-0.0198,-0.0234,-0.0235,-0.0204,-0.0201,-0.0199,-0.0168,0,0,0,0,0,0,-0.0062,-0.0069,-0.0071,-0.0104,-0.0113,-0.0142,-0.0153,-0.016,-0.0176,-0.0178,-0.0201,-0.0204,-0.0215,-0.0234,-0.0237,-0.02,-0.0236,-0.0206,-0.0203,-0.02,-0.0171,-0.0165,-0.0159,0,0,0,0,0,-0.006,-0.0061,-0.0071,-0.0077,-0.0116,-0.0142,-0.0149,-0.0171,-0.0176,-0.0182,-0.0199,-0.0203,-0.0214,-0.0235,-0.0239,-0.0201,-0.0208,-0.0204,-0.02,-0.0174,-0.0166,-0.0159,0,0,0,0,0,0,-0.0033,-0.0065,-0.0076,-0.0087,-0.0112,-0.0147,-0.0154,-0.017,-0.0189,-0.0188,-0.0208,-0.0213,-0.0208,-0.0209,-0.0232,-0.0177,-0.02,-0.0197,-0.0178,-0.0171,-0.0165,-0.0153,-0.0238,0,0,0,0,0,-0.0029,-0.0038,-0.0072,-0.008,-0.0091,-0.0122,-0.0136,-0.0151,-0.0174,-0.0182,-0.02,-0.02,-0.0195,-0.019,-0.0196,-0.0181,-0.0204,-0.0148,-0.0142,-0.0137,-0.0126,-0.013,-0.0124,-0.0185,-0.0185,-0.0185,0,0,-0.0021,-0.0039,-0.0045,-0.0075,-0.0095,-0.0107,-0.013,-0.0147,-0.0148,-0.0182,-0.0187,-0.0196,-0.019,-0.0173,-0.0166,-0.0169,-0.0137,-0.0132,-0.0128,-0.012,-0.0125,-0.012,-0.0115,-0.0183,-0.0183,-0.0184,0,0,-0.0009,-0.0026,-0.003,-0.0049,-0.0077,-0.0095,-0.0099,-0.0133,-0.0136,-0.0152,-0.0158,-0.0149,-0.0159,-0.0135,-0.0125,-0.0087,-0.0117,-0.0073,-0.0023,-0.0027,-0.0023,-0.0019,-0.0075,-0.0077,-0.0056,-0.0056,-0.0056,0,0.0002,-0.0008,-0.0035,-0.0044,-0.0052,-0.0086,-0.0088,-0.0099,-0.0132,-0.0119,-0.0147,-0.0129,-0.0134,-0.0082,-0.0063,-0.0073,-0.0101,-0.0058,-0.0022,-0.0018,-0.0015,-0.0073,-0.0075,-0.0054,-0.0054,-0.0054,-0.0054,0,0.0008,0.0002,-0.0001,-0.002,-0.0032,-0.0041,-0.0059,-0.0059,-0.0072,-0.0078,-0.0053,-0.0068,-0.0045,-0.0034,-0.0042,0.0008,-0.0033,-0.003,-0.0047,-0.0007,-0.0071,-0.0074,-0.0051,-0.0052,-0.0052,-0.0053,0,0,0.0029,0.0008,0.0008,0.0011,-0.0018,-0.0024,-0.0012,-0.0003,0.0023,-0.0001,0.003,0.0046,0.0043,0.0057,0.006,0.0066,0.0047,0.0035,0.0034,-0.0035,-0.0003,-0.0062,-0.0072,0.0053,0.0053,0.0054,-0.0071,0,0.0043,0.0045,0.0028,0.0036,0.0038,0.0025,0.004,0.0048,0.0052,0.0071,0.0081,0.0102,0.008,0.0098,0.0099,0.0071,0.0048,0.0078,-0.0019,-0.0023,-0.009,-0.0073,-0.0022,-0.013,-0.0074,-0.0075,-0.0075,0,0.0053,0.0057,0.0069,0.008,0.0081,0.0084,0.0121,0.0128,0.0157,0.0168,0.0193,0.0182,0.0205,0.0166,0.0125,0.0143,0.0072,0.0031,0.0025,-0.0037,-0.0084,-0.0151,-0.0138,-0.008,-0.008,-0.008,-0.0079,0,0.0087,0.0087,0.0105,0.0103,0.0107,0.0129,0.0136,0.0165,0.0199,0.0234,0.0264,0.0263,0.0277,0.0207,0.0107,0.0124,0.0017,0.003,-0.0103,-0.0111,-0.0088,-0.0094,-0.0024,-0.0024,-0.0024,-0.0024,-0.0023,0,0.0106,0.0122,0.0125,0.0134,0.0171,0.0162,0.0214,0.0232,0.0274,0.032,0.0318,0.0349,0.0291,0.022,0.0114,-0.0019,0.0015,-0.01,-0.0134,-0.008,-0.0084,-0.0043,-0.0044,-0.0028,-0.0027,-0.0026,-0.0026,0,0.0135,0.0132,0.0155,0.0173,0.0184,0.0209,0.0256,0.0302,0.0338,0.0397,0.0414,0.0424,0.0328,0.0204,0.0078,0.0001,-0.0132,-0.0203,-0.0169,-0.0195,-0.0263,-0.026,-0.0327,-0.033,-0.0333,-0.0335,-0.0336,0,0.0146,0.0166,0.0188,0.0213,0.0222,0.0263,0.0299,0.0333,0.0386,0.0434,0.0468,0.0407,0.0355,0.013,-0.0023,-0.0238,-0.0249,-0.0318,-0.0257,-0.0261,-0.0288,-0.0281,-0.0275,-0.0236,-0.0236,-0.0237,-0.0237,0,0.0185,0.0194,0.0211,0.0262,0.0298,0.0345,0.0398,0.0437,0.0477,0.0512,0.0522,0.0475,0.0292,0.0126,-0.0142,-0.0264,-0.0269,-0.0337,-0.0333,-0.0166,-0.0184,-0.0207,-0.0202,-0.0243,-0.0242,-0.0242,-0.0241,-0.0241,0.0214,0.0231,0.0263,0.0308,0.0364,0.0421,0.0453,0.0493,0.0534,0.0548,0.0516,0.0453,0.0315,-0.0016,-0.0198,-0.0352,-0.0354,-0.0377,-0.037,-0.0364,-0.033,-0.035,-0.0438,-0.0439,-0.0439,-0.044,-0.044,0,0.0247,0.0271,0.0316,0.036,0.0425,0.0459,0.0521,0.0517,0.0528,0.0535,0.0493,0.0346,0.018,0.0008,-0.0207,-0.0351,-0.0313,-0.0398,-0.0296,-0.0291,-0.0287,-0.0244,-0.0332,-0.0332,-0.0332,-0.0332,0,0,0.0263,0.0295,0.0304,0.0394,0.0457,0.0521,0.055,0.0511,0.051,0.0462,0.0449,0.0378,0.0223,0.0085,-0.0103,-0.021,-0.0216,-0.0232,-0.0305,-0.0159,-0.0153,-0.0267,-0.0197,0,0,0,0,0]}],[{"header":{"parameterUnit":"m.s-1","parameterCategory":2,"la1":30.2991,"la2":30.254,"lo1":-89.0895,"lo2":-89.0444,"dy":0.0017,"dx":0.0017,"nx":28,"ny":28,"refTime":"2024-09-03T09:00:00:Z","depth":"4","parameterNumber":2,"parameterNumberName":"U-component_of_CURRENTS"},"data":[0,0,0,0,0,0,0,0,0,0,0,0,0,0,0,0,0,0,0,0,0,0,0,0,0,0,0,0,0,0,0,0,0,0,0,0,0,0,0,0,0,0,0,0,0,0,0,0,0,0,0,0,0,0,0,0,0,0,0.0624,0.0624,0,0.064,0.064,0.064,0.067,0.067,0.0671,0.0671,0.0679,0.0679,0.0678,0,0,0,0,0,0,0,0,0,0,0,0,0,0.0629,0.0628,0.0624,0.0624,0.0624,0.064,0.064,0.064,0.067,0.067,0.0671,0.0671,0.0679,0.0679,0.0678,0,0,0,0,0,0,0,0,0,0,0,0,0,0.0634,0.0628,0.0624,0.064,0.0642,0.064,0.064,0.064,0.0669,0.067,0.0671,0.0672,0.0679,0.0679,0.0678,0.0659,0,0,0.0677,0.0677,0,0,0,0,0,0,0,0,0.0634,0.0634,0.0638,0.0639,0.0641,0.0654,0.0645,0.0646,0.0669,0.0659,0.0671,0.0672,0.0669,0.0669,0.0671,0.0659,0.066,0.0677,0.0677,0.0676,0.0676,0,0,0,0,0,0,0,0.0633,0.0633,0.063,0.0638,0.064,0.0651,0.0652,0.0645,0.0659,0.066,0.0662,0.0664,0.067,0.0671,0.0671,0.066,0.0677,0.0676,0.0676,0.0676,0.0682,0.0682,0,0,0,0,0,0,0.0629,0.0633,0.063,0.0631,0.0639,0.065,0.0652,0.0649,0.0659,0.0662,0.0663,0.0665,0.0672,0.0672,0.0672,0.0707,0.0676,0.0676,0.0676,0.0681,0.0682,0.0682,0,0,0,0,0,0,0.0629,0.0629,0.0629,0.0632,0.0633,0.0649,0.0645,0.0649,0.0677,0.0662,0.0664,0.0691,0.0672,0.0672,0.0685,0.0706,0.0676,0.0675,0.0681,0.0682,0.0682,0.0742,0,0,0,0,0,0,0.0629,0.0628,0.0634,0.0632,0.0633,0.0641,0.0645,0.0648,0.0675,0.0679,0.0686,0.0686,0.0673,0.0686,0.0684,0.0705,0.0675,0.068,0.0681,0.0682,0.0739,0.0744,0.0749,0,0,0,0,0,0.0629,0.0632,0.0634,0.0634,0.0637,0.0642,0.0644,0.0658,0.0676,0.0688,0.0695,0.0687,0.069,0.0686,0.0684,0.0705,0.068,0.0681,0.0682,0.0737,0.0743,0.0748,0,0,0,0,0,0,0.0638,0.0635,0.0638,0.064,0.0647,0.0647,0.0661,0.0674,0.069,0.0702,0.0693,0.0693,0.0711,0.0697,0.0693,0.0707,0.0683,0.0684,0.0726,0.0731,0.0736,0.0739,0.0675,0,0,0,0,0,0.0641,0.0644,0.0642,0.0648,0.0653,0.0663,0.0672,0.0684,0.0692,0.0702,0.0706,0.0708,0.0707,0.0713,0.0706,0.0716,0.0705,0.0726,0.0731,0.0735,0.0736,0.0744,0.075,0.0686,0.0686,0.0686,0,0,0.0647,0.0646,0.0648,0.0651,0.0659,0.067,0.0672,0.0693,0.0711,0.0698,0.073,0.0726,0.0713,0.0724,0.073,0.072,0.0747,0.0737,0.0741,0.0739,0.0745,0.0752,0.0757,0.0686,0.0686,0.0686,0,0,0.0656,0.0659,0.0666,0.0673,0.0688,0.0692,0.0706,0.072,0.0737,0.0759,0.0754,0.0764,0.0768,0.076,0.0757,0.0782,0.077,0.0785,0.0816,0.0824,0.083,0.0834,0.0828,0.0832,0.079,0.079,0.079,0,0.0666,0.0669,0.067,0.0681,0.0692,0.0708,0.0724,0.0739,0.0758,0.077,0.0778,0.0794,0.0783,0.0796,0.0803,0.0795,0.0794,0.0799,0.0832,0.0836,0.084,0.0832,0.0836,0.0793,0.0793,0.0792,0.0792,0,0.067,0.0687,0.0695,0.0711,0.0723,0.0742,0.0757,0.0778,0.0804,0.0817,0.0847,0.0841,0.085,0.085,0.0836,0.0858,0.0847,0.0837,0.0821,0.085,0.084,0.0842,0.0797,0.0796,0.0795,0.0794,0,0,0.0665,0.0692,0.0701,0.0716,0.0744,0.0753,0.0784,0.0807,0.0831,0.0861,0.0894,0.0899,0.0908,0.0904,0.0896,0.0903,0.0925,0.0888,0.0887,0.0887,0.0941,0.0912,0.0911,0.0931,0.0932,0.0932,0.0922,0,0.0675,0.07,0.0712,0.0749,0.0764,0.0785,0.0811,0.0836,0.0861,0.0893,0.0911,0.0936,0.0927,0.094,0.095,0.0933,0.0935,0.0928,0.0906,0.0905,0.0881,0.0914,0.0935,0.0924,0.0925,0.0925,0.0925,0,0.0675,0.0694,0.0728,0.0768,0.0777,0.0804,0.0842,0.087,0.091,0.0932,0.0967,0.0977,0.1002,0.0988,0.0995,0.0998,0.0972,0.0956,0.0955,0.0908,0.0881,0.0887,0.0929,0.0929,0.0929,0.0928,0.0928,0,0.0662,0.0707,0.0736,0.0749,0.0793,0.0817,0.085,0.0888,0.0911,0.0966,0.0983,0.1022,0.1042,0.104,0.1021,0.1011,0.1021,0.0998,0.0943,0.094,0.0942,0.0937,0.0988,0.0988,0.0988,0.0988,0.0988,0,0.0654,0.0683,0.0738,0.0753,0.0794,0.083,0.0872,0.0905,0.0952,0.0974,0.1014,0.1032,0.1057,0.1063,0.1041,0.1014,0.104,0.0954,0.0942,0.0966,0.0964,0.0944,0.0939,0.0988,0.0988,0.0988,0.0988,0,0.0625,0.0666,0.0705,0.0765,0.0789,0.0823,0.0886,0.0907,0.096,0.099,0.1009,0.1051,0.1066,0.1074,0.1064,0.103,0.1007,0.0981,0.1012,0.1001,0.091,0.0908,0.0916,0.0915,0.0914,0.0913,0.0913,0,0.0612,0.063,0.0706,0.0734,0.0767,0.0821,0.085,0.0913,0.0931,0.0986,0.0995,0.1029,0.1045,0.1018,0.1038,0.1013,0.0988,0.0968,0.0932,0.0918,0.0906,0.0905,0.0904,0.0912,0.0911,0.0911,0.0911,0,0.0585,0.0621,0.0646,0.0697,0.0744,0.0778,0.0829,0.0835,0.0893,0.0947,0.0951,0.0954,0.0971,0.0983,0.098,0.0955,0.0986,0.0958,0.0959,0.0925,0.0913,0.0901,0.0901,0.0908,0.0908,0.0909,0.0909,0,0.0569,0.0579,0.0614,0.0652,0.0696,0.0711,0.0749,0.0771,0.08,0.0863,0.0867,0.0907,0.0959,0.0953,0.0952,0.0939,0.0907,0.086,0.0865,0.0869,0.0861,0.084,0.0808,0,0,0,0,0,0.0547,0.0548,0.0569,0.06,0.0628,0.0657,0.0713,0.075,0.0809,0.0791,0.0823,0.0835,0.0842,0.0879,0.0851,0.0923,0.0908,0.0888,0.0855,0.0892,0.0895,0.0893,0,0,0,0,0,0,0.0535,0.0551,0.0546,0.053,0.0541,0.0567,0.0602,0.065,0.065,0.0717,0.0733,0.0787,0.0815,0.0843,0.0835,0.0843,0.0806,0.0926,0.0924,0.089,0.0893,0.0896,0.0894,0,0,0,0,0]},{"header":{"parameterUnit":"m.s-1","parameterCategory":2,"la1":30.2991,"la2":30.254,"lo1":-89.0895,"lo2":-89.0444,"dy":0.0017,"dx":0.0017,"nx":28,"ny":28,"refTime":"2024-09-03T09:00:00:Z","depth":"4","parameterNumber":3,"parameterNumberName":"V-component_of_CURRENTS"},"data":[0,0,0,0,0,0,0,0,0,0,0,0,0,0,0,0,0,0,0,0,0,0,0,0,0,0,0,0,0,0,0,0,0,0,0,0,0,0,0,0,0,0,0,0,0,0,0,0,0,0,0,0,0,0,0,0,0,0,-0.0004,-0.0004,0,-0.0055,-0.0055,-0.0056,-0.0073,-0.0073,-0.0073,-0.0072,-0.0193,-0.0196,-0.02,0,0,0,0,0,0,0,0,0,0,0,0,0,0.001,0.001,-0.0004,-0.0004,-0.0005,-0.0055,-0.0055,-0.0056,-0.0073,-0.0073,-0.0072,-0.0072,-0.0192,-0.0196,-0.02,0,0,0,0,0,0,0,0,0,0,0,0,0,-0.0016,0.001,-0.0004,-0.0018,-0.0019,-0.0054,-0.0055,-0.0057,-0.0074,-0.0073,-0.0072,-0.0072,-0.019,-0.0195,-0.0201,-0.0246,0,0,-0.0217,-0.0219,0,0,0,0,0,0,0,0,-0.0014,-0.0017,-0.0015,-0.0017,-0.0019,-0.0055,-0.0095,-0.0123,-0.0074,-0.0055,-0.0072,-0.0071,-0.0152,-0.0161,-0.0174,-0.0251,-0.0256,-0.0218,-0.0221,-0.0223,-0.0225,0,0,0,0,0,0,0,-0.0012,-0.0015,-0.0026,-0.0016,-0.0018,-0.0045,-0.0048,-0.01,-0.0109,-0.0057,-0.0058,-0.006,-0.0154,-0.0168,-0.0177,-0.0258,-0.0217,-0.0222,-0.0225,-0.0228,-0.0402,-0.0403,0,0,0,0,0,0,0.0001,-0.0013,-0.0024,-0.0027,-0.0013,-0.0045,-0.0048,-0.0046,-0.0107,-0.0115,-0.0061,-0.0061,-0.0159,-0.017,-0.0181,-0.0256,-0.0223,-0.0228,-0.0231,-0.04,-0.0402,-0.0404,0,0,0,0,0,0,0.0001,0.0001,-0.0022,-0.002,-0.0024,-0.0045,-0.0043,-0.0047,-0.0064,-0.0109,-0.0118,-0.0073,-0.0159,-0.0174,-0.0235,-0.026,-0.023,-0.0235,-0.0399,-0.0401,-0.0403,-0.0394,0,0,0,0,0,0,0.0002,0.0001,0.0003,-0.0019,-0.0024,-0.0046,-0.0043,-0.0048,-0.0065,-0.0066,-0.0123,-0.0133,-0.016,-0.0226,-0.024,-0.0267,-0.024,-0.0397,-0.04,-0.0402,-0.0393,-0.0396,-0.0398,0,0,0,0,0,0.0003,0.0003,0.0003,0.0001,-0.0019,-0.0047,-0.0053,-0.0067,-0.0066,-0.0079,-0.0118,-0.0132,-0.0253,-0.0232,-0.0248,-0.0276,-0.0396,-0.0399,-0.0402,-0.0391,-0.0395,-0.0398,0,0,0,0,0,0,0.0007,0.0,0.0001,-0.0002,-0.0023,-0.0049,-0.006,-0.0071,-0.011,-0.0113,-0.0153,-0.0167,-0.023,-0.0258,-0.0234,-0.0335,-0.0326,-0.0333,-0.0313,-0.0317,-0.032,-0.0296,-0.0244,0,0,0,0,0,0.001,0.001,-0.0006,-0.0009,-0.0018,-0.004,-0.0054,-0.0065,-0.0098,-0.0114,-0.0155,-0.0204,-0.0256,-0.0287,-0.0336,-0.0395,-0.04,-0.0424,-0.0427,-0.0429,-0.0422,-0.0446,-0.045,-0.0414,-0.0414,-0.0414,0,0,0.0011,0.0007,0.0007,-0.0008,-0.0024,-0.0048,-0.0048,-0.007,-0.0095,-0.0125,-0.0178,-0.0218,-0.0275,-0.0336,-0.0367,-0.0362,-0.0443,-0.0433,-0.0434,-0.0426,-0.045,-0.0453,-0.0456,-0.0416,-0.0416,-0.0416,0,0,0.0005,0.0009,0.0002,-0.0016,-0.0037,-0.0054,-0.006,-0.0093,-0.0113,-0.0166,-0.0195,-0.0242,-0.0327,-0.0364,-0.0396,-0.0446,-0.0457,-0.0472,-0.047,-0.0494,-0.0497,-0.0499,-0.0507,-0.051,-0.0473,-0.0473,-0.0473,0,0.0004,-0.0003,-0.0008,-0.0025,-0.004,-0.0057,-0.0079,-0.0107,-0.0158,-0.0179,-0.0183,-0.0292,-0.0337,-0.0405,-0.0422,-0.0451,-0.0461,-0.0449,-0.0495,-0.0497,-0.0499,-0.0508,-0.0511,-0.0473,-0.0473,-0.0473,-0.0473,0,-0.0013,-0.0021,-0.0029,-0.0052,-0.0071,-0.0092,-0.0124,-0.0152,-0.0175,-0.0202,-0.0267,-0.0319,-0.0376,-0.0407,-0.0433,-0.0482,-0.0483,-0.0492,-0.0477,-0.0502,-0.051,-0.0513,-0.0473,-0.0473,-0.0473,-0.0473,0,0,-0.001,-0.0034,-0.0038,-0.005,-0.0085,-0.0102,-0.0144,-0.0185,-0.0204,-0.0257,-0.0287,-0.0374,-0.0384,-0.042,-0.0456,-0.0482,-0.0509,-0.0494,-0.0495,-0.0486,-0.0553,-0.0496,-0.0494,-0.0526,-0.0527,-0.0528,-0.0551,0,-0.0024,-0.005,-0.0063,-0.0096,-0.0113,-0.0137,-0.0169,-0.0207,-0.024,-0.0275,-0.0324,-0.037,-0.0396,-0.0418,-0.0449,-0.0502,-0.0519,-0.0501,-0.0545,-0.0546,-0.0479,-0.0497,-0.053,-0.0553,-0.0554,-0.0555,-0.0555,0,-0.0043,-0.0054,-0.0082,-0.0107,-0.0116,-0.0137,-0.0175,-0.0206,-0.0256,-0.0277,-0.032,-0.0356,-0.0415,-0.0419,-0.0499,-0.0488,-0.0515,-0.0544,-0.0546,-0.0494,-0.0495,-0.0528,-0.0562,-0.0561,-0.0561,-0.056,-0.056,0,-0.004,-0.007,-0.0087,-0.0099,-0.0131,-0.0146,-0.0165,-0.0208,-0.0224,-0.0273,-0.0282,-0.0355,-0.0382,-0.0438,-0.0496,-0.0505,-0.0562,-0.0582,-0.055,-0.0546,-0.0593,-0.059,-0.0616,-0.0615,-0.0615,-0.0615,-0.0615,0,-0.0053,-0.0068,-0.0083,-0.0094,-0.0109,-0.0133,-0.0151,-0.0179,-0.0203,-0.0215,-0.0274,-0.0289,-0.0388,-0.0434,-0.0488,-0.0521,-0.0555,-0.0544,-0.0548,-0.059,-0.0587,-0.0595,-0.0592,-0.0616,-0.0616,-0.0616,-0.0616,0,-0.006,-0.0067,-0.0087,-0.0107,-0.011,-0.0122,-0.0131,-0.014,-0.0162,-0.0175,-0.0188,-0.0249,-0.0303,-0.0381,-0.0467,-0.0496,-0.0545,-0.0541,-0.0564,-0.0571,-0.0516,-0.0513,-0.0522,-0.052,-0.0518,-0.0517,-0.0516,0,-0.0068,-0.0077,-0.0091,-0.0093,-0.0102,-0.011,-0.011,-0.0122,-0.0122,-0.0144,-0.0145,-0.0195,-0.0238,-0.0306,-0.0396,-0.048,-0.0485,-0.0511,-0.053,-0.0503,-0.0507,-0.0507,-0.0506,-0.0513,-0.0513,-0.0512,-0.0512,0,-0.0086,-0.0087,-0.0099,-0.0099,-0.0097,-0.0094,-0.009,-0.0076,-0.0082,-0.0096,-0.0094,-0.0139,-0.0184,-0.0269,-0.0321,-0.0387,-0.0506,-0.0496,-0.05,-0.0517,-0.0493,-0.0499,-0.05,-0.0507,-0.0507,-0.0508,-0.0508,0,-0.0096,-0.0102,-0.0109,-0.0108,-0.0103,-0.0085,-0.0078,-0.0059,-0.0049,-0.0053,-0.0049,-0.0106,-0.0147,-0.0218,-0.0275,-0.0325,-0.0347,-0.0376,-0.0387,-0.0394,-0.0349,-0.03,-0.0252,0,0,0,0,0,-0.0107,-0.011,-0.0116,-0.011,-0.0104,-0.0096,-0.0071,-0.0059,-0.0041,-0.0024,-0.003,-0.0063,-0.0132,-0.0173,-0.021,-0.0267,-0.0374,-0.0314,-0.0417,-0.0477,-0.0483,-0.0447,0,0,0,0,0,0,-0.0115,-0.012,-0.0119,-0.0112,-0.0105,-0.009,-0.0069,-0.0055,-0.0037,-0.0026,-0.0057,-0.007,-0.014,-0.0107,-0.0211,-0.0229,-0.0298,-0.0349,-0.035,-0.0473,-0.0479,-0.0484,-0.0449,0,0,0,0,0]}]]